Voltar ao catálogo

XINGSHIDAI-15

AtivoCiênciaSSO
NORAD 61231·PAYLOAD·🇨🇳 China
Este nome de satélite ainda não foi confirmado por fontes oficiais.

Lançado Sep 24, 2024 de Yellow Sea Launch Area

Loading…

Próximas Passagens (próximas 24 horas)

TLE

AtualizadoSource: Space-Track

Época: Sep 14, 2026, 22:32 UTC

1 61231U 24173E   26257.93905748  .00001021  00000-0  51766-4 0  9990
2 61231  97.4123 328.4216 0001630  90.5514 269.5907 15.19160723109385

Acompanhe XINGSHIDAI-15 em tempo real com AllMySat

Download on the App Store